Regional Weather Roundup
Issued by NWS Albany, NY

Home | Current Version | Previous Version | Text Only | Print | Product List | Glossary On
Versions: 1 2 3 4 5 6 7 8 9 10 11 12 13 14 15 16 17 18 19 20 21 22 23 24 25 26 27 28 29 30 31 32 33 34 35 36 37 38 39 40 41 42 43 44 45 46 47 48 49 50
000
ASUS41 KALY 301010
RWRALY

NEW YORK STATE HOURLY WEATHER ROUNDUP
NATIONAL WEATHER SERVICE ALBANY NY
600 AM EDT TUE SEP 30 2014

NOTE: "FAIR" INDICATES FEW OR NO CLOUDS BELOW 12,000 FEET WITH NO
SIGNIFICANT WEATHER AND/OR NO OBSTRUCTIONS TO VISIBILITY.

NYZ032-033-038>043-046>054-057>066-NYZ062>081-301100-
EAST


CITY           SKY/WX    TMP DP  RH WIND       PRES   REMARKS
ALBANY         PTCLDY    55  54  96 N3        29.96R FOG
GLENS FALLS    CLOUDY    58  55  90 NE3       29.97R
POUGHKEEPSIE   CLOUDY    61  58  90 CALM      29.93R
NEWBURGH       MOCLDY    63  61  94 SE7       29.95R
MONTGOMERY     FOG       54  53  97 CALM      29.94R VSB 1/4
WHITE PLAINS   FOG       65  63  93 E6        29.94R VSB 1
ISLIP          CLOUDY    66  64  93 E8        29.92S FOG
NEW YORK CITY  CLOUDY    68  64  87 NE7       29.92R
CENTRAL PARK   CLOUDY    68  55  63 CALM      29.96R
$$

NYZ005>009-017-018-044>046-055-056-301100-
CENTRAL


CITY           SKY/WX    TMP DP  RH WIND       PRES   REMARKS
FULTON         CLEAR     55  53  93 CALM      29.89R
SYRACUSE       PTCLDY    55  53  93 E3        29.88S
ROME           PTCLDY    56  54  93 E8        29.92S
ELMIRA         FOG       50  50 100 CALM      29.91R VSB 1/4
BINGHAMTON     CLEAR     55  54  96 S5        29.92R
MONTICELLO     PTCLDY    54  54 100 E3        29.97R
$$

NYZ026>034-041>043-301100-
NORTH


CITY           SKY/WX    TMP DP  RH WIND       PRES   REMARKS
WATERTOWN      MOCLDY    54  48  80 N7        29.90R
FORT DRUM      NOT AVBL
MASSENA        CLOUDY    48  47  96 E10       29.98R FOG
SARANAC LAKE   FOG       41  41 100 CALM      29.95S VSB 1/2
PLATTSBURGH    CLOUDY    46  44  93 CALM      29.98R
$$

NYZ001>004-010>016-019>021-301100-
WEST


CITY           SKY/WX    TMP DP  RH WIND       PRES   REMARKS
NIAGARA FALLS  PTCLDY    55  53  93 CALM      29.87S FOG
BUFFALO        PTCLDY    55  51  86 SE5       29.88R
DUNKIRK        PTCLDY    51  49  92 S3        29.88R
JAMESTOWN      CLOUDY    48  46  93 CALM      29.91S VSB<1/4
WELLSVILLE     PTCLDY    50  49  96 CALM      29.93S FOG
ROCHESTER      PTCLDY    55  53  93 SW3       29.89R FOG
PENN YAN       MOCLDY    56  54  93 SW5       29.90R
$$

             KEY
       WCI = WIND CHILL INDEX
       VSB = VISIBILITY
       HX  = HEAT INDEX
$$



USA.gov is the U.S. government's official web portal to all federal, state and local government web resources and services.